Wind_Speed
108 108 108 107 107 107 107 107 107 107 108 108 109 109 110 111 112 113 114 115 115 116 117 117 118 118 119 120 121 121 122 123 123 124 124 124 125 125 125 125 125 126 126 127 127 128 129 130 131 131 132 133 134 134 135 135 135 136 136 135 135 135 135 134 134 134 134 134 134 134 134 134 133 133 133 132 132 131 131 131 130 130 129 129 128 128
110 110 110 110 110 110 110 110 110 110 110 111 111 112 113 113 115 116 117 117 118 118 118 119 119 120 120 121 122 123 124 124 125 126 127 127 127 128 128 128 128 128 129 130 130 131 132 133 134 134 135 136 136 137 137 137 137 137 137 137 137 136 136 136 136 136 136 135 135 135 135 134 134 133 133 132 132 131 131 130 130 129 129 129 128 128
112 112 112 113 113 112 113 113 113 113 113 114 114 115 116 116 117 118 119 120 120 120 120 120 121 121 122 123 124 125 126 126 127 128 129 130 130 131 131 131 131 131 132 133 133 134 135 135 136 137 137 138 138 138 139 139 139 138 138 138 138 137 137 137 137 137 137 136 136 136 135 135 134 133 133 132 131 131 130 130 129 129 129 128 128 127
113 114 115 115 115 115 116 116 116 116 116 116 117 118 118 119 120 121 121 122 122 122 122 122 123 123 124 125 126 127 127 128 129 130 131 132 133 133 134 134 134 134 135 135 136 137 137 138 138 139 139 140 140 140 140 140 140 140 139 139 139 139 139 138 138 138 137 137 136 136 135 134 133 133 132 131 131 130 130 129 129 129 128 128 127 127
115 115 116 117 117 118 118 118 118 118 119 119 119 120 121 122 122 123 123 124 124 124 124 125 125 125 126 127 128 128 129 130 131 132 133 134 135 136 136 137 137 137 137 138 138 139 139 140 140 141 141 141 141 141 141 141 141 141 141 141 140 140 140 139 139 138 137 137 136 135 134 133 133 132 131 131 130 130 129 129 129 128 128 127 127 127
117 117 118 119 119 120 120 120 120 121 121 121 122 122 123 124 124 125 125 126 126 126 127 127 127 128 128 129 129 130 130 131 132 133 134 136 137 138 138 139 139 140 140 140 141 141 141 141 142 142 142 142 142 142 142 142 142 142 142 142 142 141 140 140 139 138 137 136 135 134 133 132 132 131 131 130 130 129 129 129 128 128 128 127 127 126
119 119 120 120 121 121 122 122 122 123 123 123 124 124 125 125 126 126 127 127 128 128 129 129 130 130 130 130 131 131 132 133 134 135 136 137 138 139 140 141 141 142 142 142 142 143 143 143 143 143 143 144 144 144 144 144 144 144 143 143 142 141 140 139 138 137 136 135 134 133 132 132 131 130 130 130 129 129 129 128 128 128 127 127 127 126
121 121 122 122 122 123 124 124 124 124 124 125 125 126 126 127 127 128 128 129 129 130 130 131 131 132 132 132 132 133 133 134 135 136 137 138 139 140 141 142 143 143 143 144 144 144 145 145 145 145 146 146 146 146 146 146 145 145 144 143 142 141 140 138 137 136 135 134 133 132 132 131 130 130 130 129 129 129 128 128 128 128 127 127 126 126
122 123 123 123 124 124 125 125 126 126 126 126 126 127 127 128 128 129 130 130 131 131 131 132 132 133 133 134 134 134 135 136 136 137 138 139 141 142 142 143 144 144 145 146 146 147 147 147 148 148 148 148 148 148 147 146 146 145 143 142 141 140 138 137 136 135 134 133 132 132 131 130 130 130 129 129 129 128 128 128 128 127 127 126 126 125
123 123 124 124 125 125 125 126 126 127 127 127 127 128 128 128 129 130 131 131 132 132 133 133 133 134 134 135 136 136 137 137 138 139 140 141 142 143 144 145 146 146 147 148 149 149 150 150 151 151 150 150 149 148 147 146 145 144 142 141 140 138 137 136 135 134 133 132 132 131 131 130 130 129 129 129 128 128 128 128 127 127 126 126 125 124
124 124 124 125 126 126 126 126 127 128 128 128 128 129 129 130 130 130 131 132 133 134 134 134 134 135 136 137 138 138 139 139 140 141 142 144 145 146 147 147 148 149 150 151 151 152 152 152 152 152 151 150 149 148 146 145 144 142 141 140 138 137 136 135 134 133 132 132 131 131 130 130 129 129 129 129 128 128 127 127 127 126 126 125 124 123
125 125 126 126 127 128 128 128 129 129 129 130 130 131 131 132 132 132 132 133 134 135 136 137 137 138 138 139 140 141 141 142 143 144 146 147 148 149 150 150 151 152 153 153 154 154 153 153 152 151 150 149 148 146 145 144 142 141 140 138 137 136 135 134 133 132 132 131 131 130 130 130 129 129 129 128 128 127 127 126 126 125 124 124 123 122
127 128 128 129 130 130 131 131 131 132 132 133 133 134 134 135 135 135 135 136 137 138 139 139 140 141 142 142 143 143 144 145 146 148 149 150 151 152 152 153 154 154 155 155 155 154 153 152 151 150 149 147 146 145 143 142 141 140 138 137 136 135 134 133 133 132 132 131 131 130 130 129 129 128 128 128 127 127 126 125 125 124 123 122 121 120
130 130 131 132 133 133 134 134 135 135 136 136 137 137 138 138 139 139 139 140 141 142 142 143 144 145 146 146 146 147 147 148 149 151 152 153 154 155 155 155 156 156 156 155 155 154 153 151 150 149 147 146 145 143 142 141 140 138 137 136 135 134 134 133 132 132 131 131 130 130 129 129 128 128 127 127 126 126 125 124 123 122 121 120 118 117
133 133 134 135 136 137 137 138 138 139 140 140 141 141 142 142 143 143 143 144 145 146 146 147 148 149 149 150 150 150 150 151 152 154 155 156 156 156 156 156 156 156 156 155 154 153 152 150 149 147 146 145 143 142 141 140 138 137 136 135 134 134 133 132 132 131 131 130 130 129 128 128 127 127 126 126 125 124 123 122 121 120 118 117 115 113
136 136 137 138 139 140 141 141 142 142 143 144 144 145 145 146 146 147 147 148 149 149 150 151 151 153 153 154 154 154 154 154 155 156 157 157 158 157 157 156 156 155 155 154 153 151 150 149 147 146 144 143 142 141 140 139 137 137 136 135 134 133 132 132 131 131 130 129 129 128 128 127 126 125 125 124 123 122 121 119 118 116 114 112 110 108
139 140 140 141 142 143 144 144 145 145 146 147 147 148 148 149 150 150 151 151 152 153 153 154 155 155 156 157 157 157 157 156 156 156 157 157 158 157 156 155 154 154 153 152 151 150 148 147 146 144 143 142 141 140 139 138 137 136 135 134 133 132 132 131 130 130 129 128 128 127 126 125 124 123 122 121 120 119 117 115 113 112 110 108 105 103
143 143 144 144 145 146 146 147 148 148 149 149 150 151 151 152 152 153 153 154 154 155 156 157 157 158 158 159 159 159 158 157 156 156 156 157 157 156 155 154 152 152 151 150 149 148 147 145 144 143 142 141 140 139 138 137 136 135 134 133 133 132 131 130 129 129 128 127 126 125 124 123 122 121 119 118 116 114 113 111 109 107 105 103 100 98
146 146 147 147 148 148 149 149 150 151 151 152 152 153 153 154 154 155 155 155 156 157 157 158 158 159 159 159 159 159 158 157 156 155 155 155 155 155 153 152 150 150 149 148 148 147 145 144 143 143 142 141 140 139 138 137 136 135 134 132 132 131 130 129 128 127 126 125 124 123 121 120 118 117 115 113 111 110 108 106 104 102 100 98 96 94
148 149 149 149 150 150 151 151 152 152 153 153 154 154 155 155 156 156 156 157 157 158 158 159 159 159 160 159 159 158 157 156 155 154 153 153 153 152 151 150 148 148 147 147 146 145 144 144 143 142 141 140 139 138 137 136 135 134 133 131 130 129 128 127 126 125 124 122 121 119 117 116 114 112 110 108 106 104 103 101 99 97 95 93 91 90
149 150 151 151 151 151 152 153 153 154 154 154 155 155 156 156 157 157 158 158 158 159 159 159 159 160 159 159 158 157 156 154 152 151 151 151 150 150 149 148 147 146 146 146 145 145 144 143 142 141 140 139 138 137 136 135 133 132 131 130 129 128 126 125 123 122 120 118 116 115 113 111 109 107 105 103 101 100 98 96 94 93 91 89 88 86
150 150 151 151 152 152 152 153 154 154 154 155 155 156 157 157 158 158 159 159 159 159 160 159 159 159 158 157 156 155 154 152 150 149 148 148 148 148 147 146 145 145 145 145 145 144 143 142 142 141 140 138 137 136 135 133 132 131 129 128 126 125 123 121 120 118 116 113 112 110 108 106 104 102 100 98 97 95 93 92 90 89 87 85 84 83
150 151 151 152 152 152 153 153 154 155 155 156 156 157 157 158 158 159 159 159 159 159 159 159 158 157 156 155 154 153 151 150 148 147 147 146 146 146 146 145 144 144 144 144 144 143 142 142 141 140 138 137 136 134 133 131 130 128 127 125 123 121 119 117 115 113 111 108 106 105 103 101 99 97 96 94 92 91 89 88 86 85 84 83 82 81
151 151 152 152 153 153 153 154 155 155 156 156 157 157 158 158 159 159 159 158 158 158 157 157 156 155 154 153 152 150 149 148 147 146 145 145 145 145 145 144 143 143 143 143 142 142 141 140 139 138 137 135 134 132 130 129 127 125 123 120 118 116 114 112 110 108 105 104 102 100 98 96 94 93 91 90 88 87 86 84 83 82 81 80 80 79
151 152 152 153 153 154 154 155 155 156 156 157 157 158 158 158 158 158 157 157 156 156 155 154 153 152 152 151 149 148 148 147 146 145 144 144 144 144 143 143 142 142 142 141 141 140 139 138 137 136 134 133 131 129 127 125 122 120 118 115 113 111 109 107 104 103 101 99 97 95 93 92 90 88 87 86 84 83 82 81 80 80 79 79 79 78
152 153 153 153 154 154 155 155 156 156 156 156 157 157 157 156 156 156 155 154 154 153 152 151 150 150 149 148 147 147 146 145 145 144 143 143 143 143 142 141 140 140 140 139 138 137 137 136 135 133 131 129 127 124 122 120 117 115 112 110 108 106 104 102 100 98 96 94 92 91 89 87 86 84 83 82 81 80 79 79 78 78 78 78 78 78
153 153 153 154 154 154 155 155 155 155 155 155 155 155 154 154 153 153 152 152 151 150 149 148 148 148 147 147 146 145 145 144 143 143 142 141 141 141 140 139 138 137 137 136 136 134 134 133 131 129 127 124 122 119 117 114 112 110 107 105 103 101 99 97 95 93 91 89 88 86 85 83 82 81 80 79 78 78 77 77 77 77 77 77 77 77
153 153 153 153 154 154 154 154 154 153 153 153 153 152 152 151 150 150 150 149 149 148 147 146 146 146 146 145 144 144 143 143 142 141 140 139 139 139 138 136 135 134 134 133 132 130 129 128 126 124 122 119 117 114 112 109 107 105 102 100 98 96 94 92 90 88 87 85 84 82 81 80 79 78 77 77 76 76 76 76 76 76 76 76 76 76
152 152 152 152 152 152 152 152 151 151 151 150 150 150 149 149 148 147 147 147 146 146 145 145 144 144 144 143 143 142 141 140 140 139 138 137 137 136 134 133 132 131 129 129 127 125 124 122 119 118 116 113 111 109 106 104 102 99 97 95 93 91 89 87 86 84 83 81 80 79 78 77 76 76 76 75 75 75 75 75 75 75 75 75 75 75
150 150 150 150 150 150 149 149 149 149 148 148 147 147 147 146 146 145 145 145 144 144 143 143 142 142 141 141 140 140 139 138 137 135 134 134 134 132 130 129 127 125 124 123 121 120 118 115 113 111 109 107 105 103 101 99 97 95 92 90 88 86 85 83 82 81 79 78 77 77 76 75 75 75 75 75 75 75 75 75 75 74 74 74 74 75
148 148 148 148 147 147 147 147 146 146 146 145 145 145 144 144 143 143 143 142 142 141 141 140 140 139 139 138 137 137 136 135 133 131 130 130 129 127 125 124 122 119 117 116 114 113 111 109 107 104 103 101 99 97 96 94 92 90 88 86 84 83 81 80 79 78 77 76 76 75 75 75 75 75 75 75 75 75 75 74 74 74 74 74 74 75
145 145 145 145 145 144 144 144 144 143 143 143 142 142 142 141 141 141 140 140 139 139 138 138 137 136 135 134 134 133 132 130 128 126 125 125 124 122 119 118 116 113 110 108 106 105 104 102 101 99 96 95 93 92 90 88 87 85 84 82 81 80 79 78 77 77 76 76 75 75 75 75 76 75 76 75 75 75 75 75 74 74 74 74 75 75
142 142 142 142 142 141 141 141 141 140 140 140 140 139 139 138 138 138 137 137 136 135 135 134 133 132 131 130 129 128 126 125 123 121 119 119 117 115 113 110 108 106 104 101 99 97 96 95 94 92 91 89 88 87 85 84 82 81 80 79 79 78 78 77 77 76 76 76 76 76 76 76 76 76 76 76 76 76 76 76 75 75 75 75 75 75
139 139 139 138 138 138 138 138 137 137 137 137 136 136 136 135 135 134 134 133 132 131 130 129 129 128 126 125 124 122 121 119 117 114 112 111 110 108 105 103 101 99 97 95 93 91 89 88 87 85 84 83 82 81 81 80 79 78 78 77 77 77 77 77 77 77 77 77 77 77 77 77 77 77 77 77 77 77 76 77 76 76 76 76 75 75
135 135 135 135 135 134 134 134 134 134 133 133 133 132 132 131 131 130 129 128 127 126 125 124 123 122 121 120 118 116 114 112 109 107 105 103 102 100 98 96 94 92 90 89 87 85 83 82 80 79 78 78 78 77 77 77 76 76 76 76 77 77 77 77 77 77 77 77 77 77 77 77 77 77 77 78 77 77 77 77 77 76 76 75 75 74
131 131 131 131 131 131 130 130 130 130 129 129 128 128 127 127 126 125 124 123 121 120 119 117 116 114 113 112 111 109 107 104 101 99 97 95 94 92 91 89 87 85 84 82 81 79 78 77 76 75 74 74 75 75 75 75 75 75 76 76 76 76 76 76 76 76 76 77 77 77 77 77 77 78 78 78 78 78 78 77 77 76 76 75 74 74
127 127 127 127 127 126 126 126 126 125 125 124 123 122 122 121 120 119 118 116 115 113 112 110 109 107 105 103 102 100 98 96 94 92 90 88 86 85 84 82 81 79 78 77 75 75 74 73 73 72 72 73 73 74 74 74 74 75 76 76 76 76 76 76 75 76 76 76 76 76 77 77 77 78 78 78 78 78 77 77 76 76 75 74 74 73
123 123 123 122 122 122 121 121 120 120 119 118 117 116 115 114 113 112 110 109 107 106 104 102 101 99 97 95 94 92 90 88 86 85 83 81 79 78 77 76 75 74 73 72 72 72 71 71 71 72 72 72 73 73 74 74 74 75 75 76 76 76 75 75 75 75 75 75 76 76 76 77 77 77 77 77 77 77 76 76 75 75 74 73 73 72
118 117 117 117 116 116 115 115 114 113 112 111 110 109 108 106 105 104 102 101 99 98 96 94 92 91 89 87 86 84 82 81 79 78 76 75 73 72 72 72 71 71 71 70 70 70 70 71 71 71 72 72 73 73 73 73 74 74 75 75 75 75 75 75 75 75 75 75 75 75 76 76 76 76 76 76 76 76 75 75 75 74 73 73 72 72
112 111 111 110 109 109 108 107 106 105 104 103 102 101 99 98 97 95 94 92 91 89 88 86 84 83 81 80 78 77 75 74 73 72 71 70 69 69 69 69 70 70 70 70 70 70 70 70 71 71 71 72 72 73 73 73 73 73 74 75 75 75 75 74 74 74 74 74 74 74 74 75 75 75 75 75 75 74 74 74 73 73 72 72 72 72
104 104 103 102 101 100 99 98 97 96 95 94 93 92 90 89 88 87 85 84 83 81 80 78 77 75 74 73 71 70 69 69 68 67 67 67 67 67 68 68 69 69 70 70 70 70 70 70 70 70 70 70 71 71 72 72 72 72 73 74 74 75 74 74 74 74 74 73 73 73 73 73 73 74 74 74 73 73 73 73 72 72 71 71 71 71
95 95 94 93 92 91 90 89 88 87 86 85 84 83 82 81 80 78 77 76 75 74 72 71 70 69 68 67 66 66 65 65 65 65 65 66 66 66 67 68 68 69 69 70 70 70 69 69 69 69 69 69 70 70 71 71 71 72 72 73 73 73 73 73 73 72 72 72 72 72 72 72 72 72 72 72 72 72 72 72 71 71 71 71 71 71
85 85 84 83 82 82 81 80 79 79 78 77 76 75 74 73 72 71 70 69 68 67 66 66 65 65 64 64 63 63 63 63 63 64 64 65 65 66 67 67 68 68 68 69 69 69 69 68 68 68 68 69 69 70 70 71 71 71 71 71 71 72 72 72 71 71 71 71 70 70 70 70 70 71 71 71 71 71 71 71 71 71 71 71 71 71
76 75 75 74 74 73 73 72 71 71 70 69 68 67 66 65 65 64 64 63 63 63 63 63 62 62 63 62 62 62 62 62 62 62 63 64 65 65 66 67 67 67 67 68 68 68 68 68 68 68 68 68 68 69 69 70 70 70 70 70 69 69 70 70 69 69 69 69 69 69 69 69 69 69 69 70 70 70 70 71 71 71 71 71 71 72
67 67 67 66 66 65 65 64 63 63 62 61 61 61 61 60 60 60 60 60 60 60 60 61 61 61 61 61 61 61 61 61 61 61 62 62 63 64 65 65 66 66 67 67 67 67 68 68 67 67 67 67 68 68 68 68 68 68 68 68 68 67 68 67 67 67 67 67 67 67 67 67 67 67 68 68 69 70 70 70 71 71 71 72 72 72
60 59 59 58 58 57 57 57 57 57 57 57 57 57 57 57 57 57 58 58 58 59 59 59 59 60 60 60 60 60 60 60 60 60 60 61 62 62 63 64 65 66 66 66 66 66 66 66 66 66 66 66 66 66 66 66 66 66 66 66 66 66 66 65 65 65 65 65 66 66 65 65 66 66 66 67 68 69 70 70 71 71 72 72 73 73
52 52 52 52 52 52 52 52 53 53 53 54 54 54 55 55 55 55 56 56 57 57 58 58 58 59 59 59 59 59 59 59 59 59 59 60 60 61 62 63 64 64 65 65 65 65 65 64 64 64 64 64 64 64 64 63 63 63 64 64 64 64 64 63 63 63 63 64 64 64 64 64 64 65 65 66 67 68 70 70 71 71 72 72 73 73
47 47 47 48 48 49 49 50 50 51 51 52 52 52 53 53 53 54 55 55 55 56 56 57 57 57 58 58 58 58 58 58 58 58 59 59 59 60 61 62 62 63 63 63 63 63 63 62 61 61 61 61 61 62 62 61 61 61 61 61 61 61 62 62 62 62 62 62 63 63 63 63 63 64 64 65 67 68 69 70 71 71 71 72 72 72
44 45 45 46 46 47 47 48 48 48 49 50 50 51 51 52 52 53 53 54 54 55 55 56 56 56 56 56 56 56 57 57 57 57 58 58 59 59 60 60 61 61 61 61 61 61 61 60 59 58 58 58 58 59 59 59 59 59 59 59 59 59 60 60 60 61 61 61 62 62 62 62 63 63 64 65 66 67 69 70 70 71 71 71 71 72
42 42 43 44 44 45 45 46 46 47 48 48 49 49 50 51 51 52 52 53 53 54 54 54 55 55 55 55 55 55 55 55 56 56 56 57 58 58 59 59 60 60 60 60 60 60 59 58 57 55 55 55 55 56 56 57 57 57 58 58 58 58 58 59 59 60 60 61 61 62 62 62 63 63 64 65 66 67 68 69 69 70 70 70 71 71
40 40 41 42 43 43 44 45 45 46 47 47 48 49 49 50 51 51 52 52 53 53 53 54 54 54 54 54 54 54 54 55 55 55 55 56 57 57 58 58 59 59 59 59 59 59 58 57 56 54 52 52 52 52 54 55 55 56 56 56 56 57 57 58 58 59 60 61 61 62 62 63 63 64 64 64 65 66 67 68 68 69 69 69 70 70
Wind_Direction
271 272 273 273 274 275 276 276 277 278 279 279 280 281 281 282 283 283 284 285 285 286 286 287 287 288 288 289 289 289 290 290 291 291 291 292 292 293 293 293 293 293 293 293 293 293 294 294 294 295 295 295 296 296 297 297 297 298 298 299 299 299 299 299 299 299 299 299 299 299 298 298 298 298 297 297 297 297 296 296 296 296 295 295 295 295
271 272 273 273 274 275 276 276 277 278 279 279 280 280 281 282 283 284 284 285 286 286 287 287 288 288 288 289 289 289 290 290 290 291 292 292 292 293 293 293 293 293 293 293 293 294 294 294 295 295 296 296 296 297 297 298 298 298 299 299 299 299 299 299 299 299 299 298 298 298 298 298 297 297 297 297 296 296 296 296 296 295 295 295 295 295
271 272 273 274 274 275 276 277 277 278 278 279 280 280 281 282 283 284 284 285 286 286 287 287 287 288 288 288 289 289 289 290 290 291 292 292 293 293 293 293 293 293 293 293 294 294 295 295 295 296 296 297 297 297 298 298 298 299 299 299 299 299 299 299 298 298 298 298 298 297 297 297 297 297 297 296 296 296 296 296 295 295 295 295 295 295
271 272 273 274 274 275 276 277 277 278 278 279 280 280 281 282 283 284 284 285 286 286 287 287 287 288 288 288 289 289 289 290 290 291 292 292 293 293 293 293 293 294 294 294 294 295 295 296 296 296 297 297 297 298 298 298 299 299 299 299 298 298 298 298 298 298 297 297 297 297 297 297 297 296 296 296 296 296 296 295 295 295 295 295 295 295
271 272 273 273 274 275 276 276 277 278 278 279 280 280 281 282 283 283 284 285 285 286 286 287 287 287 288 288 289 289 289 290 291 291 292 293 293 293 294 294 294 294 294 294 295 295 296 296 296 297 297 297 297 298 298 298 298 298 298 298 298 297 297 297 297 297 297 297 297 297 297 296 296 296 296 296 296 296 295 295 295 295 295 295 295 295
271 272 273 274 274 275 276 276 277 278 278 279 280 280 281 282 283 283 284 285 285 286 286 287 287 287 288 288 289 289 290 290 291 291 292 293 293 294 294 294 294 294 294 295 295 295 296 296 296 297 297 297 297 297 297 297 297 297 297 297 297 297 297 297 297 297 297 297 296 296 296 296 296 296 296 296 296 295 295 295 295 295 295 295 295 295
271 272 273 274 274 275 276 276 277 278 278 279 280 280 281 282 282 283 284 284 285 285 286 286 287 287 288 288 289 289 290 290 291 291 292 293 293 293 294 294 294 294 294 295 295 295 296 296 296 296 296 296 296 296 296 296 296 296 296 296 296 296 296 296 296 296 296 296 296 296 296 296 296 296 296 295 295 295 295 295 295 295 295 295 295 295
272 272 273 274 275 275 276 276 277 278 278 279 280 280 281 282 282 283 283 284 285 285 286 286 287 287 288 288 289 289 290 290 291 291 292 292 293 293 294 294 294 294 294 294 295 295 295 295 295 295 295 295 296 296 296 296 296 296 296 296 296 296 296 296 296 296 296 296 296 296 296 296 295 295 295 295 295 295 295 295 295 295 294 294 294 294
272 273 273 274 275 275 276 277 277 278 278 279 280 280 281 282 282 283 283 284 284 285 285 286 286 287 288 288 289 289 290 290 291 291 292 292 293 293 293 293 293 293 294 294 294 294 294 294 294 295 295 295 295 295 295 296 296 296 296 296 296 296 296 296 296 296 296 296 296 295 295 295 295 295 295 295 295 295 294 294 294 294 294 294 294 294
272 273 273 274 275 275 276 277 278 278 279 279 280 280 281 281 282 283 283 283 284 284 285 285 286 287 287 288 288 289 289 290 290 291 291 292 292 292 292 292 292 293 293 293 293 293 293 294 294 294 294 295 295 295 295 296 296 296 296 296 296 296 296 296 295 295 295 295 295 295 295 295 295 294 294 294 294 294 294 294 294 294 294 294 294 294
272 273 273 274 275 275 276 277 277 278 279 279 280 280 281 281 282 282 283 283 284 284 285 285 286 286 287 287 288 288 289 289 290 290 291 291 291 291 291 291 292 292 292 292 292 293 293 293 294 294 294 295 295 295 295 295 295 295 295 295 295 295 295 295 295 295 295 295 295 294 294 294 294 294 294 294 294 294 294 294 294 294 294 294 294 294
272 272 273 274 274 275 276 276 277 278 278 279 280 280 280 281 281 282 282 283 283 284 284 285 285 286 286 287 287 288 288 289 289 290 290 290 291 291 291 291 291 291 291 292 292 292 293 293 294 294 294 295 295 295 295 295 295 295 295 295 295 295 295 295 294 294 294 294 294 294 294 294 294 294 294 294 294 294 294 294 294 294 294 294 294 294
271 272 272 273 274 274 275 276 276 277 278 278 279 279 280 280 281 281 282 283 283 284 284 285 285 286 286 286 287 288 288 289 289 290 290 290 290 290 291 291 291 291 291 292 292 293 293 293 294 294 294 294 295 295 295 295 294 294 294 294 294 294 294 294 294 294 294 294 294 294 294 294 293 293 293 293 293 293 293 293 293 294 294 294 294 294
271 271 272 273 273 274 274 275 276 276 277 278 278 279 279 280 281 281 282 282 283 283 284 285 285 286 286 286 287 287 288 289 289 289 290 290 290 290 290 291 291 291 292 292 292 293 293 293 294 294 294 294 294 294 294 294 294 294 294 294 294 294 294 294 294 294 294 293 293 293 293 293 293 293 293 293 293 293 293 293 293 293 294 294 294 294
270 271 272 272 273 274 274 275 275 276 277 277 278 278 279 280 280 281 282 282 283 283 284 285 285 285 286 286 287 287 288 288 289 289 289 290 290 290 290 291 291 292 292 292 293 293 293 293 293 293 294 294 294 293 293 293 293 293 293 293 293 293 293 293 293 293 293 293 293 293 293 293 293 293 293 293 293 293 293 293 293 293 293 293 294 294
271 271 272 273 273 274 274 275 275 276 277 277 278 278 279 280 280 281 281 282 283 283 284 284 285 285 286 286 287 287 288 288 289 289 289 290 290 290 291 291 291 292 292 292 292 293 293 293 293 293 293 293 293 293 293 293 293 293 293 293 293 293 293 293 293 293 293 293 293 293 293 293 293 293 293 293 293 293 293 293 293 293 293 293 293 293
271 271 272 273 273 274 274 275 275 276 277 277 278 278 279 280 280 281 281 282 283 283 284 284 285 286 286 287 287 287 288 288 289 289 289 290 290 290 291 291 291 292 292 292 292 292 292 293 293 293 293 293 293 293 293 293 293 293 293 293 293 293 293 293 293 293 293 293 293 293 293 293 293 293 293 293 293 293 293 293 293 293 293 293 293 293
271 271 272 273 273 274 275 275 276 276 277 277 278 278 279 279 280 281 281 282 283 283 284 284 285 286 286 287 287 287 288 288 289 289 289 290 290 290 291 291 291 291 292 292 292 292 292 292 292 292 292 292 292 292 292 292 292 293 293 293 293 293 293 293 293 293 293 293 293 293 293 293 293 293 293 293 293 293 293 293 293 293 293 293 293 293
271 272 272 273 274 274 275 275 276 276 277 278 278 279 279 280 280 281 282 282 283 283 284 285 285 286 286 287 287 287 288 288 289 289 289 290 290 290 291 291 291 291 292 292 292 292 292 292 292 292 292 292 292 292 292 292 292 293 293 293 293 293 293 293 293 293 293 293 293 293 293 293 293 293 293 293 293 293 293 293 293 293 293 293 293 293
271 272 272 273 274 274 275 276 276 277 277 278 278 279 280 280 281 281 282 283 283 284 284 285 285 286 286 286 287 287 288 288 289 289 289 290 290 290 290 291 291 291 291 291 291 291 292 292 292 292 292 292 292 292 292 292 292 293 293 293 293 293 293 293 293 293 293 293 293 293 293 293 293 293 293 293 293 293 293 292 293 292 292 292 292 292
271 272 272 273 274 275 275 276 276 277 278 278 279 279 280 280 281 282 282 283 283 284 284 285 285 285 286 286 287 287 288 288 289 289 289 290 290 290 290 291 291 291 291 291 291 291 291 291 291 291 291 292 292 292 292 292 292 293 293 293 293 293 293 293 293 293 293 293 293 293 293 293 293 293 293 292 292 292 292 292 292 292 292 292 292 292
271 272 273 273 274 275 275 276 277 277 278 278 279 280 280 281 281 282 282 283 283 284 284 285 285 285 286 286 287 287 288 288 289 289 289 290 290 290 290 290 291 291 291 291 291 291 291 291 291 291 291 292 292 292 292 292 293 293 293 293 293 293 293 293 293 293 293 293 293 293 293 293 292 292 292 292 292 292 292 292 292 292 292 292 292 292
272 272 273 273 274 275 275 276 276 277 278 278 279 280 280 281 281 282 282 283 283 284 284 284 285 285 286 286 287 287 287 288 288 289 289 289 289 289 289 290 290 290 290 290 290 291 291 291 291 291 291 292 292 292 292 292 293 293 293 293 293 293 293 293 293 293 293 293 293 292 292 292 292 292 292 292 292 292 292 292 292 292 292 292 292 292
272 272 273 274 274 275 275 276 277 277 278 278 279 279 280 280 281 281 282 282 283 283 284 284 285 285 286 286 286 287 287 287 288 288 289 289 289 289 289 289 289 290 290 290 290 290 291 291 291 291 291 292 292 292 292 293 293 293 293 293 293 293 293 293 293 292 292 292 292 292 292 292 292 292 292 292 292 292 292 292 292 292 292 292 292 292
272 273 273 274 274 275 276 276 277 277 278 278 279 279 280 280 281 281 282 282 283 283 284 284 285 285 286 286 286 287 287 287 287 288 288 288 288 288 288 289 289 289 290 290 290 290 291 291 291 291 291 292 292 292 292 293 292 292 292 292 292 292 292 292 292 292 292 292 292 292 292 292 292 292 292 292 292 292 292 292 292 292 292 292 292 292
272 273 274 274 275 275 276 276 277 277 278 278 279 279 280 280 281 281 282 282 283 283 284 284 285 285 285 286 286 286 286 286 287 287 287 287 288 288 288 288 288 289 289 290 290 290 291 291 291 291 292 292 292 292 292 292 292 292 292 292 292 292 292 292 292 292 292 292 292 292 292 292 292 292 291 292 292 292 292 292 292 292 292 292 292 292
273 273 274 274 275 276 276 277 277 278 278 278 279 279 280 281 281 282 282 283 283 283 284 284 285 285 285 285 285 286 286 286 286 286 287 287 287 288 288 288 288 289 289 290 290 290 291 291 291 292 292 292 292 292 292 292 292 292 292 292 292 292 292 292 292 292 292 291 291 291 291 291 291 291 291 291 291 291 291 291 291 291 291 291 291 291
273 274 274 275 275 276 276 277 277 278 278 279 279 280 280 281 281 282 282 282 283 283 284 284 284 284 284 285 285 285 285 286 286 286 286 287 287 287 288 288 288 289 289 290 290 291 291 291 291 291 292 292 291 291 291 291 291 291 292 292 292 292 292 292 291 291 291 291 291 291 291 291 291 291 291 291 291 291 291 291 291 291 291 291 291 291
273 274 275 275 276 276 277 277 278 278 279 279 279 280 280 281 281 282 282 282 282 283 283 283 283 284 284 284 284 285 285 285 285 286 286 287 287 287 288 288 289 289 290 290 290 291 291 291 291 291 291 291 291 291 291 291 291 291 292 292 292 292 292 291 291 291 291 291 291 291 291 291 291 291 291 291 291 291 290 290 290 290 290 290 290 290
274 274 275 275 276 276 277 277 278 278 279 279 279 280 280 280 281 281 281 282 282 282 283 283 283 283 283 284 284 284 285 285 285 286 286 287 287 288 288 289 289 289 290 290 290 291 290 290 290 290 291 291 291 291 291 291 291 292 292 292 292 292 291 291 291 291 291 291 291 291 291 291 291 291 291 291 291 291 291 291 291 291 291 291 291 291
274 275 275 276 276 276 277 277 278 278 278 279 279 279 280 280 280 281 281 281 281 282 282 282 283 283 283 284 284 285 285 285 286 286 287 287 288 288 288 289 289 289 289 290 290 290 290 290 290 290 290 290 290 291 291 291 291 292 292 292 292 292 292 292 292 292 292 292 292 292 292 292 292 292 292 292 292 292 292 292 292 292 291 291 291 291
274 275 275 276 276 276 277 277 278 278 278 278 279 279 279 280 280 280 280 281 281 281 282 282 282 283 283 283 284 285 285 286 286 287 287 288 288 288 288 289 289 289 289 289 289 289 289 290 290 290 290 290 290 291 291 291 291 292 292 292 292 292 292 292 293 293 293 293 293 293 294 294 293 293 293 293 293 293 293 293 293 293 292 292 292 292
274 275 275 276 276 276 277 277 277 278 278 278 278 279 279 279 279 280 280 280 281 281 282 282 282 283 283 284 284 285 285 286 287 287 288 288 288 288 288 288 288 289 289 289 289 289 289 289 289 290 290 290 290 291 291 291 292 292 292 293 293 293 293 293 294 294 294 294 294 294 294 294 294 294 294 294 294 294 294 294 294 293 293 293 293 293
274 275 275 275 276 276 276 277 277 277 278 278 278 278 279 279 279 280 280 280 281 281 282 282 283 283 284 284 285 285 286 286 287 287 287 288 288 288 288 288 288 288 288 288 288 288 288 288 289 289 289 289 290 290 291 291 292 292 292 293 293 293 293 294 294 294 295 295 295 295 295 295 295 295 295 295 295 295 295 294 294 294 294 294 294 294
274 275 275 275 276 276 276 276 277 277 277 278 278 278 279 279 279 280 280 281 281 282 282 283 283 284 285 285 286 286 286 286 287 287 287 287 288 288 288 288 288 288 288 288 288 288 288 288 288 288 289 289 290 290 290 291 292 292 292 292 293 293 293 294 294 294 295 295 295 295 295 295 295 295 295 295 295 295 295 295 295 294 294 294 294 295
274 275 275 275 276 276 276 276 277 277 277 278 278 278 279 279 280 280 281 281 282 282 283 283 284 284 285 285 286 286 286 286 287 287 287 287 287 288 288 288 288 288 288 288 288 288 288 288 288 289 289 289 290 290 291 291 292 292 292 292 292 293 293 293 294 294 294 295 295 295 295 296 296 296 296 295 295 295 295 295 295 295 295 295 295 295
274 275 275 275 275 276 276 276 277 277 277 278 278 279 279 280 280 281 281 282 282 283 283 284 284 285 285 285 286 286 286 287 287 287 287 287 287 287 287 287 288 288 288 288 288 288 289 289 289 289 290 290 290 291 291 291 292 292 292 292 292 293 293 293 294 294 294 295 295 295 295 296 296 296 296 296 295 296 295 296 296 296 296 296 296 296
274 275 275 275 275 276 276 276 277 277 278 278 279 279 280 280 281 281 282 282 283 283 284 284 284 285 285 285 286 286 286 286 287 287 287 287 287 287 287 287 288 288 288 288 289 289 289 290 290 290 290 290 291 291 291 291 291 292 292 292 292 293 293 293 294 294 294 295 295 295 295 295 296 296 296 296 296 296 296 296 296 296 297 297 297 297
274 275 275 275 275 276 276 277 277 278 278 279 279 280 280 281 281 282 282 283 283 283 284 284 284 285 285 285 286 286 286 286 287 287 287 287 287 287 288 288 288 288 289 289 289 289 289 290 290 290 290 291 291 291 291 291 291 292 292 292 293 293 293 294 294 294 295 295 295 295 296 296 296 296 296 296 296 296 296 297 297 297 297 297 298 297
274 275 275 275 276 276 277 277 278 278 279 279 280 280 281 281 282 282 282 283 283 283 284 284 284 285 285 285 286 286 286 287 287 287 287 288 288 288 288 289 289 289 289 289 289 289 289 290 290 290 290 290 291 291 291 291 292 292 292 292 293 293 294 294 295 295 295 296 296 296 296 296 296 296 296 297 297 297 297 297 297 298 298 298 298 298
274 275 275 276 276 276 277 277 278 278 279 279 280 280 281 281 282 282 283 283 283 284 284 284 284 285 285 285 286 286 287 287 287 288 288 288 289 289 289 289 289 289 289 289 289 289 289 290 290 290 290 290 291 291 291 291 292 292 292 293 293 294 295 295 295 296 296 296 296 296 296 297 297 297 297 297 297 297 297 297 298 298 298 298 298 299
274 275 275 276 276 276 277 277 278 278 279 279 280 280 281 281 282 282 283 283 283 284 284 285 285 285 286 286 286 286 287 287 288 288 288 289 289 289 289 289 289 289 289 289 289 289 290 290 290 290 291 291 291 291 292 292 292 293 293 293 294 295 295 295 296 296 296 297 297 297 297 297 297 297 297 297 297 297 298 298 298 298 298 298 299 299
274 274 275 275 276 276 277 277 278 278 279 280 280 280 281 282 282 282 283 283 284 284 285 285 285 286 286 286 286 287 287 287 288 288 288 289 289 289 289 289 289 289 289 289 290 290 290 291 291 291 291 292 292 292 292 293 293 293 294 294 295 295 295 296 296 296 297 297 297 297 297 297 297 297 297 298 298 298 298 298 298 298 298 299 298 298
273 274 274 275 276 276 277 277 278 279 279 280 280 281 281 282 282 283 283 284 284 284 285 285 286 286 286 286 287 287 287 288 288 288 289 289 289 289 289 289 289 289 289 290 290 290 291 291 292 292 292 292 292 293 293 293 294 294 294 295 295 295 296 296 296 297 297 297 297 297 297 297 297 298 298 298 298 298 298 298 298 299 299 299 298 298
273 274 274 275 276 276 277 278 278 279 279 280 280 281 282 282 282 283 283 284 284 284 285 285 285 286 286 287 287 287 288 288 288 288 288 289 289 289 289 289 289 290 290 290 290 291 291 292 292 293 293 293 293 293 293 294 294 295 295 295 295 295 296 296 296 296 296 296 296 297 297 297 297 298 298 298 298 298 298 298 299 299 299 299 299 298
273 274 275 275 276 277 277 278 279 279 280 280 281 281 282 282 283 283 283 284 284 285 285 285 286 286 286 287 287 288 288 288 288 288 288 288 288 289 289 289 289 290 290 290 291 291 291 292 292 293 293 293 293 294 294 294 295 295 295 295 295 295 295 296 296 296 296 296 296 296 297 297 297 298 298 298 298 298 298 298 299 299 299 299 299 299
274 274 275 276 276 277 278 278 279 279 280 280 281 282 282 283 283 283 284 284 285 285 285 286 286 286 287 287 288 288 288 288 288 288 288 288 288 288 289 289 289 289 290 290 291 291 291 292 292 293 293 293 294 294 294 295 295 295 295 295 295 295 295 295 296 296 296 296 296 296 297 297 298 298 298 298 298 298 298 298 299 299 299 299 299 299
274 275 275 276 276 277 278 278 279 280 280 281 282 282 283 283 284 284 285 285 285 286 286 286 286 287 287 287 288 288 288 289 289 289 289 289 289 289 289 289 290 290 290 290 291 291 291 292 292 293 293 294 294 294 295 295 295 295 295 295 295 295 296 296 296 296 296 296 296 297 297 297 298 298 298 298 298 298 299 299 299 299 299 300 300 300
274 275 276 276 277 278 278 279 280 281 282 282 283 284 284 285 285 285 286 286 286 287 287 287 287 287 288 288 288 289 289 289 290 290 290 290 291 291 291 291 291 291 291 291 291 291 292 292 292 293 293 294 294 295 295 295 295 295 295 295 295 296 296 296 296 296 297 297 297 297 298 298 298 298 299 299 299 299 299 299 299 299 300 300 300 300
275 276 277 278 279 280 280 281 282 283 284 284 285 285 286 286 286 287 287 287 288 288 288 288 289 289 289 289 290 290 290 291 291 291 292 292 292 293 292 292 292 293 292 292 292 292 293 293 293 293 293 294 294 295 295 295 296 296 296 296 296 296 297 297 297 297 297 297 298 298 298 299 299 299 299 299 299 299 299 299 300 300 300 300 301 301
278 279 280 281 282 282 283 284 285 285 286 286 287 287 287 288 288 288 288 289 289 289 289 290 290 290 291 291 291 292 292 292 293 293 294 294 294 294 294 294 294 294 294 294 294 295 295 294 294 294 294 294 295 295 296 296 297 297 297 297 297 297 297 297 298 298 298 298 299 299 299 300 300 300 300 300 300 300 300 300 300 300 301 301 301 301
Height
10611 10610 10611 10611 10611 10610 10608 10607 10608 10608 10606 10605 10604 10603 10602 10600 10598 10597 10596 10596 10595 10593 10592 10591 10590 10588 10587 10585 10584 10582 10581 10579 10578 10576 10576 10575 10575 10575 10575 10573 10572 10570 10568 10566 10565 10563 10560 10558 10556 10554 10551 10549 10547 10545 10543 10540 10538 10536 10534 10531 10529 10526 10524 10522 10520 10517 10515 10512 10510 10506 10504 10501 10498 10495 10493 10490 10486 10483 10480 10476 10473 10471 10468 10465 10462 10460
10605 10605 10605 10605 10605 10604 10602 10600 10600 10601 10600 10599 10597 10596 10596 10595 10593 10591 10590 10589 10588 10587 10586 10584 10583 10581 10580 10578 10576 10575 10573 10571 10570 10568 10567 10567 10566 10566 10566 10565 10564 10562 10560 10558 10556 10554 10551 10550 10547 10545 10542 10540 10538 10535 10533 10531 10528 10526 10524 10521 10519 10517 10515 10512 10510 10507 10505 10502 10500 10497 10494 10491 10488 10485 10482 10479 10476 10473 10470 10466 10463 10461 10458 10455 10452 10450
10600 10599 10598 10598 10598 10598 10596 10594 10593 10594 10594 10593 10591 10590 10589 10588 10586 10585 10583 10582 10581 10580 10579 10578 10576 10575 10573 10571 10569 10567 10566 10564 10561 10560 10559 10558 10558 10558 10557 10556 10555 10553 10551 10549 10547 10545 10543 10540 10538 10535 10533 10530 10528 10526 10523 10521 10519 10516 10515 10512 10510 10508 10505 10503 10500 10498 10495 10493 10490 10487 10485 10481 10478 10475 10472 10469 10466 10463 10460 10456 10453 10451 10448 10445 10442 10440
10595 10595 10593 10591 10591 10591 10590 10588 10588 10587 10587 10586 10585 10584 10583 10581 10580 10578 10577 10576 10575 10573 10571 10570 10569 10568 10566 10564 10561 10560 10558 10556 10554 10553 10551 10550 10549 10548 10548 10546 10545 10543 10541 10540 10537 10535 10533 10530 10528 10526 10523 10521 10519 10516 10515 10512 10510 10508 10506 10503 10501 10498 10496 10494 10491 10489 10486 10483 10480 10478 10475 10471 10468 10465 10462 10459 10456 10453 10450 10446 10443 10441 10438 10435 10432 10430
10590 10590 10588 10586 10585 10585 10583 10583 10582 10581 10581 10580 10579 10578 10576 10575 10573 10572 10571 10570 10568 10566 10565 10563 10561 10560 10559 10556 10555 10552 10550 10548 10546 10545 10543 10541 10540 10539 10538 10537 10535 10533 10531 10530 10528 10526 10523 10521 10519 10516 10514 10512 10510 10508 10506 10503 10501 10499 10497 10495 10492 10490 10487 10485 10482 10479 10476 10473 10471 10468 10465 10461 10458 10455 10452 10449 10446 10443 10440 10436 10434 10431 10428 10425 10423 10420
10583 10584 10583 10581 10580 10578 10577 10576 10576 10576 10575 10574 10573 10571 10570 10569 10568 10566 10564 10563 10561 10560 10557 10555 10553 10552 10551 10550 10547 10545 10543 10541 10539 10537 10535 10533 10532 10531 10529 10528 10526 10524 10522 10520 10518 10516 10515 10512 10510 10508 10505 10503 10501 10499 10497 10495 10493 10491 10488 10486 10483 10480 10478 10475 10472 10470 10466 10464 10461 10458 10455 10452 10449 10446 10443 10440 10436 10433 10430 10427 10424 10421 10418 10415 10413 10410
10577 10578 10577 10576 10574 10572 10571 10571 10570 10570 10569 10568 10566 10565 10564 10563 10561 10560 10558 10556 10554 10552 10550 10548 10546 10545 10544 10543 10541 10538 10536 10534 10532 10530 10528 10526 10524 10522 10521 10519 10517 10515 10513 10511 10510 10508 10506 10504 10501 10500 10497 10495 10493 10491 10489 10487 10485 10482 10480 10476 10474 10471 10468 10465 10463 10460 10457 10455 10451 10448 10445 10442 10439 10436 10433 10430 10427 10424 10421 10418 10415 10411 10409 10406 10403 10401
10571 10571 10570 10570 10569 10566 10565 10563 10563 10563 10563 10563 10561 10558 10557 10556 10555 10553 10551 10550 10548 10545 10543 10541 10539 10537 10536 10535 10534 10532 10530 10526 10525 10523 10521 10518 10516 10514 10512 10510 10508 10506 10504 10502 10500 10499 10497 10495 10493 10491 10490 10487 10485 10483 10481 10478 10476 10473 10470 10467 10464 10461 10458 10456 10453 10450 10448 10445 10442 10439 10436 10433 10430 10427 10424 10421 10418 10415 10411 10409 10406 10403 10400 10397 10394 10391
10565 10564 10563 10563 10562 10561 10560 10557 10556 10556 10557 10557 10555 10553 10550 10549 10548 10546 10544 10543 10541 10539 10537 10535 10532 10530 10528 10527 10526 10526 10523 10521 10518 10515 10513 10511 10509 10506 10505 10503 10501 10498 10496 10493 10492 10490 10488 10487 10485 10483 10481 10479 10477 10475 10472 10469 10466 10463 10460 10457 10455 10452 10449 10446 10444 10441 10438 10436 10433 10430 10427 10424 10421 10418 10415 10411 10409 10406 10403 10400 10396 10393 10391 10388 10385 10382
10558 10558 10557 10555 10555 10555 10554 10552 10550 10548 10548 10550 10548 10546 10544 10543 10541 10540 10537 10535 10533 10531 10531 10530 10526 10523 10521 10519 10518 10518 10517 10515 10512 10509 10506 10505 10502 10500 10498 10495 10493 10491 10488 10486 10484 10482 10480 10479 10477 10475 10473 10470 10468 10466 10463 10460 10456 10453 10451 10448 10445 10443 10440 10438 10435 10432 10430 10427 10424 10421 10418 10415 10412 10409 10406 10403 10400 10396 10393 10391 10388 10385 10381 10378 10376 10373
10551 10550 10550 10549 10548 10546 10546 10546 10545 10543 10541 10541 10540 10538 10536 10536 10535 10534 10531 10528 10524 10523 10523 10523 10521 10518 10515 10513 10511 10510 10509 10508 10506 10503 10500 10497 10495 10493 10491 10488 10486 10483 10481 10478 10476 10474 10472 10470 10468 10466 10464 10461 10459 10456 10453 10450 10447 10444 10441 10439 10436 10434 10431 10429 10426 10423 10421 10418 10415 10412 10409 10406 10403 10400 10397 10394 10391 10388 10385 10381 10378 10375 10372 10370 10366 10363
10543 10543 10542 10541 10540 10539 10538 10538 10537 10536 10535 10534 10533 10530 10528 10526 10527 10528 10526 10522 10518 10515 10515 10514 10513 10511 10509 10508 10506 10504 10501 10500 10497 10495 10492 10489 10486 10485 10483 10480 10477 10474 10471 10470 10468 10466 10463 10462 10460 10458 10455 10452 10450 10447 10444 10441 10438 10435 10432 10430 10427 10425 10423 10420 10417 10415 10411 10408 10406 10403 10400 10396 10394 10391 10388 10385 10381 10378 10375 10372 10369 10366 10363 10360 10358 10355
10536 10535 10535 10534 10533 10531 10531 10530 10530 10528 10527 10526 10525 10523 10521 10519 10518 10519 10518 10515 10511 10509 10508 10506 10505 10501 10500 10500 10500 10499 10496 10493 10489 10486 10483 10480 10478 10476 10474 10471 10468 10465 10461 10460 10458 10456 10454 10453 10451 10449 10445 10443 10440 10438 10435 10431 10428 10426 10423 10421 10418 10416 10413 10411 10408 10405 10403 10400 10396 10393 10390 10388 10385 10381 10378 10375 10372 10369 10366 10363 10360 10356 10354 10351 10348 10345
10529 10528 10528 10526 10525 10523 10523 10523 10522 10521 10518 10517 10516 10515 10514 10512 10511 10511 10510 10507 10504 10501 10500 10500 10497 10493 10490 10490 10491 10491 10490 10486 10482 10478 10473 10470 10468 10466 10466 10463 10459 10454 10451 10450 10449 10446 10443 10443 10441 10440 10436 10433 10431 10428 10425 10423 10420 10417 10415 10412 10410 10407 10405 10402 10399 10396 10393 10390 10387 10385 10381 10378 10375 10372 10369 10365 10362 10359 10356 10353 10350 10347 10344 10341 10339 10336
10522 10521 10521 10519 10517 10515 10515 10515 10515 10513 10510 10508 10508 10507 10506 10505 10503 10502 10501 10500 10496 10494 10492 10491 10488 10485 10481 10481 10482 10484 10484 10481 10475 10470 10465 10460 10458 10456 10456 10455 10451 10445 10440 10440 10439 10437 10434 10432 10431 10429 10426 10423 10421 10418 10416 10413 10411 10408 10406 10404 10401 10398 10396 10393 10390 10387 10384 10381 10378 10375 10372 10369 10366 10362 10359 10356 10353 10350 10346 10343 10340 10338 10335 10332 10330 10327
10515 10515 10514 10512 10510 10508 10507 10507 10506 10505 10503 10500 10500 10499 10499 10497 10495 10493 10492 10491 10489 10486 10485 10483 10480 10476 10473 10470 10471 10474 10476 10475 10470 10463 10456 10451 10448 10446 10446 10446 10443 10436 10430 10428 10428 10427 10425 10422 10420 10418 10416 10413 10411 10408 10406 10404 10402 10400 10397 10395 10393 10390 10387 10384 10381 10378 10375 10372 10369 10366 10363 10360 10356 10353 10350 10346 10343 10340 10337 10334 10331 10328 10326 10323 10321 10318
10508 10508 10507 10505 10503 10500 10499 10499 10498 10497 10495 10493 10492 10491 10490 10489 10488 10486 10485 10483 10481 10478 10476 10474 10471 10469 10465 10461 10460 10462 10465 10466 10463 10456 10448 10443 10438 10435 10435 10436 10434 10428 10421 10418 10417 10416 10415 10412 10410 10408 10405 10403 10401 10398 10396 10395 10393 10390 10388 10386 10383 10380 10378 10375 10371 10369 10366 10363 10360 10356 10353 10350 10346 10343 10340 10337 10334 10331 10328 10325 10322 10320 10317 10315 10313 10310
10500 10500 10499 10498 10496 10493 10491 10491 10490 10490 10488 10486 10485 10483 10482 10481 10480 10478 10477 10475 10473 10471 10468 10466 10463 10461 10458 10455 10453 10452 10453 10456 10455 10449 10441 10434 10428 10425 10425 10426 10424 10419 10413 10408 10407 10406 10405 10402 10400 10397 10395 10393 10391 10388 10386 10385 10383 10381 10378 10376 10373 10371 10368 10365 10362 10359 10356 10353 10350 10347 10343 10340 10337 10334 10331 10328 10325 10322 10319 10316 10313 10311 10309 10306 10305 10303
10493 10491 10491 10490 10489 10486 10485 10483 10482 10481 10480 10479 10477 10475 10474 10472 10471 10470 10469 10467 10465 10463 10461 10458 10455 10453 10450 10447 10445 10444 10445 10446 10445 10441 10433 10426 10420 10416 10415 10415 10413 10409 10403 10398 10396 10396 10395 10391 10389 10386 10385 10383 10381 10378 10376 10375 10373 10371 10368 10366 10363 10361 10358 10355 10353 10350 10346 10343 10340 10337 10334 10331 10328 10325 10322 10319 10316 10313 10310 10308 10305 10303 10301 10299 10297 10295
10485 10484 10483 10482 10481 10480 10478 10475 10474 10473 10473 10472 10470 10468 10466 10464 10462 10461 10460 10459 10457 10455 10453 10450 10448 10445 10442 10440 10438 10436 10435 10436 10436 10431 10425 10417 10411 10408 10406 10406 10404 10400 10393 10388 10386 10386 10385 10382 10378 10376 10374 10373 10371 10369 10367 10365 10363 10361 10358 10356 10354 10351 10348 10346 10343 10340 10337 10334 10331 10328 10325 10322 10319 10316 10313 10310 10308 10305 10302 10300 10298 10295 10293 10291 10290 10288
10478 10477 10475 10475 10475 10473 10471 10468 10466 10465 10465 10465 10463 10460 10458 10455 10454 10453 10452 10450 10448 10446 10445 10441 10439 10436 10434 10432 10430 10428 10426 10427 10426 10422 10415 10408 10403 10399 10397 10397 10396 10391 10384 10378 10376 10375 10375 10372 10369 10366 10364 10363 10361 10359 10357 10355 10353 10351 10349 10346 10344 10341 10339 10336 10333 10330 10327 10324 10321 10318 10316 10313 10310 10307 10305 10302 10299 10296 10295 10292 10290 10288 10286 10284 10282 10280
10472 10470 10468 10467 10467 10467 10465 10462 10460 10458 10458 10457 10456 10453 10450 10448 10446 10445 10443 10441 10440 10438 10435 10433 10430 10427 10425 10424 10422 10420 10418 10418 10416 10413 10407 10401 10395 10389 10387 10388 10388 10384 10376 10370 10366 10366 10365 10362 10358 10356 10355 10353 10351 10349 10347 10346 10344 10341 10339 10336 10335 10331 10329 10326 10323 10321 10318 10315 10312 10310 10307 10305 10301 10299 10296 10294 10291 10289 10286 10285 10283 10281 10279 10277 10275 10273
10466 10464 10462 10461 10460 10460 10458 10456 10454 10452 10451 10450 10448 10446 10443 10441 10440 10438 10435 10433 10431 10429 10426 10423 10421 10418 10416 10415 10413 10411 10410 10408 10406 10403 10400 10394 10387 10381 10378 10380 10379 10375 10368 10361 10358 10358 10356 10352 10348 10345 10345 10343 10341 10339 10337 10336 10334 10332 10330 10327 10325 10322 10320 10317 10314 10311 10309 10306 10304 10301 10298 10296 10293 10291 10288 10286 10284 10281 10279 10277 10275 10273 10271 10270 10268 10266
10459 10457 10456 10455 10453 10453 10451 10450 10448 10446 10444 10443 10441 10438 10436 10434 10432 10430 10428 10426 10423 10421 10418 10415 10411 10408 10406 10404 10403 10402 10400 10398 10396 10395 10391 10386 10379 10373 10371 10371 10371 10366 10360 10353 10350 10349 10348 10343 10338 10335 10335 10334 10332 10330 10328 10326 10324 10322 10320 10318 10315 10313 10310 10308 10305 10303 10300 10298 10295 10293 10290 10288 10286 10283 10281 10279 10276 10274 10272 10270 10268 10266 10265 10263 10261 10259
10451 10450 10449 10448 10446 10445 10444 10443 10441 10439 10437 10435 10433 10431 10428 10426 10424 10422 10420 10417 10415 10412 10409 10406 10403 10399 10395 10393 10393 10392 10390 10388 10386 10386 10383 10378 10371 10366 10363 10362 10362 10360 10353 10346 10341 10340 10339 10335 10330 10326 10325 10324 10322 10320 10318 10316 10314 10312 10310 10308 10306 10304 10301 10300 10297 10295 10292 10290 10288 10285 10283 10281 10278 10276 10274 10272 10270 10268 10266 10264 10262 10260 10258 10256 10255 10253
10445 10443 10441 10440 10439 10438 10436 10435 10433 10431 10429 10427 10425 10423 10420 10418 10415 10413 10410 10407 10405 10403 10401 10398 10393 10389 10385 10385 10384 10383 10380 10378 10376 10375 10373 10369 10365 10359 10354 10353 10353 10352 10347 10340 10335 10331 10330 10326 10321 10317 10315 10314 10312 10311 10308 10306 10305 10303 10301 10300 10298 10296 10293 10291 10289 10286 10285 10282 10280 10278 10276 10273 10271 10270 10268 10266 10264 10261 10260 10258 10256 10255 10253 10251 10249 10246
10438 10436 10435 10433 10431 10430 10428 10426 10425 10423 10421 10419 10416 10414 10411 10409 10406 10403 10400 10396 10394 10393 10393 10390 10385 10380 10376 10375 10374 10373 10371 10369 10367 10365 10362 10360 10357 10352 10346 10344 10344 10343 10339 10333 10327 10324 10321 10318 10313 10309 10306 10304 10302 10301 10299 10297 10295 10294 10293 10291 10290 10288 10286 10283 10281 10279 10276 10275 10273 10271 10269 10267 10265 10263 10261 10260 10258 10256 10254 10252 10251 10249 10247 10245 10243 10241
10430 10428 10427 10425 10424 10422 10420 10418 10416 10414 10412 10410 10407 10405 10402 10400 10397 10394 10390 10386 10384 10384 10383 10380 10375 10371 10368 10366 10364 10362 10361 10360 10358 10355 10353 10351 10348 10343 10338 10336 10336 10335 10330 10325 10320 10316 10313 10310 10306 10302 10298 10295 10293 10291 10290 10288 10286 10285 10284 10283 10281 10280 10278 10275 10273 10271 10269 10267 10265 10264 10262 10260 10259 10257 10255 10253 10251 10250 10248 10246 10245 10243 10241 10240 10237 10235
10423 10421 10419 10417 10415 10413 10411 10409 10407 10405 10403 10400 10398 10395 10393 10390 10388 10385 10381 10378 10376 10375 10373 10370 10366 10363 10361 10358 10355 10353 10351 10350 10348 10346 10345 10343 10338 10333 10329 10329 10328 10326 10322 10318 10313 10308 10304 10301 10298 10296 10291 10287 10284 10282 10281 10280 10278 10277 10276 10275 10273 10271 10270 10268 10266 10263 10262 10260 10258 10257 10255 10254 10252 10250 10249 10247 10245 10243 10241 10240 10239 10237 10235 10233 10231 10229
10415 10413 10411 10409 10406 10405 10402 10400 10398 10395 10393 10391 10388 10386 10383 10381 10378 10376 10373 10370 10368 10366 10363 10360 10356 10354 10352 10350 10347 10344 10341 10339 10338 10338 10338 10335 10329 10323 10321 10320 10319 10316 10314 10311 10307 10301 10295 10292 10290 10288 10285 10281 10277 10275 10273 10271 10270 10269 10268 10266 10265 10263 10262 10260 10258 10256 10255 10253 10251 10250 10248 10246 10245 10243 10241 10240 10238 10236 10235 10233 10232 10230 10228 10227 10225 10223
10405 10403 10401 10400 10397 10395 10393 10391 10388 10386 10383 10381 10379 10376 10374 10371 10369 10367 10364 10361 10359 10357 10354 10351 10348 10345 10343 10341 10340 10336 10332 10330 10328 10329 10329 10326 10321 10316 10313 10312 10310 10307 10305 10305 10301 10296 10289 10284 10281 10280 10278 10275 10271 10268 10266 10265 10263 10261 10260 10258 10256 10255 10254 10252 10250 10248 10247 10245 10244 10243 10241 10240 10238 10236 10234 10232 10230 10229 10227 10226 10225 10223 10221 10220 10218 10215
10396 10394 10392 10390 10387 10385 10383 10381 10378 10376 10374 10371 10369 10366 10365 10362 10360 10358 10355 10353 10350 10348 10346 10343 10340 10337 10335 10333 10331 10328 10325 10322 10320 10320 10320 10317 10313 10308 10305 10304 10301 10298 10296 10296 10294 10290 10285 10280 10275 10273 10271 10268 10265 10262 10260 10258 10256 10255 10253 10251 10249 10247 10246 10245 10243 10241 10240 10238 10236 10235 10233 10231 10230 10228 10226 10224 10223 10221 10219 10218 10216 10215 10213 10212 10210 10208
10386 10385 10383 10380 10378 10376 10373 10371 10369 10366 10364 10362 10360 10357 10355 10353 10351 10348 10346 10344 10341 10340 10337 10335 10332 10329 10326 10325 10323 10321 10318 10315 10313 10312 10310 10308 10304 10300 10297 10296 10293 10291 10288 10287 10286 10283 10280 10276 10271 10268 10265 10261 10259 10256 10254 10252 10251 10249 10247 10245 10242 10240 10238 10237 10236 10234 10232 10231 10230 10228 10226 10224 10222 10220 10218 10216 10215 10213 10211 10210 10208 10207 10206 10204 10202 10200
10377 10375 10373 10371 10368 10366 10364 10361 10360 10357 10355 10353 10350 10348 10346 10343 10341 10339 10336 10335 10333 10331 10329 10327 10325 10321 10319 10316 10315 10312 10310 10308 10306 10305 10303 10300 10296 10292 10290 10288 10285 10283 10281 10279 10277 10276 10273 10271 10268 10265 10260 10257 10254 10251 10249 10247 10245 10243 10241 10239 10236 10234 10232 10231 10230 10228 10226 10225 10223 10221 10219 10216 10215 10213 10210 10208 10207 10205 10203 10202 10200 10199 10198 10196 10195 10193
10367 10365 10363 10361 10359 10357 10355 10352 10350 10348 10346 10343 10341 10339 10337 10335 10333 10330 10328 10326 10325 10323 10321 10319 10317 10315 10312 10309 10306 10303 10301 10300 10299 10297 10295 10292 10288 10285 10283 10280 10278 10276 10275 10271 10270 10268 10266 10264 10262 10260 10256 10253 10250 10247 10245 10243 10241 10238 10236 10233 10231 10229 10227 10226 10224 10222 10220 10218 10216 10215 10212 10210 10208 10205 10203 10201 10200 10198 10196 10194 10192 10191 10190 10188 10186 10185
10358 10356 10353 10351 10350 10348 10346 10343 10341 10338 10336 10335 10332 10330 10328 10326 10324 10322 10320 10318 10316 10315 10313 10311 10309 10307 10305 10302 10299 10296 10293 10292 10291 10290 10288 10285 10282 10279 10276 10273 10271 10270 10268 10265 10263 10262 10260 10258 10256 10254 10252 10249 10245 10242 10240 10238 10236 10233 10231 10228 10226 10224 10223 10221 10220 10218 10215 10213 10211 10209 10206 10204 10201 10199 10196 10195 10192 10190 10188 10186 10185 10183 10181 10180 10179 10177
10348 10346 10344 10342 10341 10339 10336 10334 10332 10330 10328 10326 10324 10322 10320 10318 10316 10314 10312 10310 10308 10307 10305 10303 10301 10299 10297 10295 10292 10290 10287 10285 10284 10282 10280 10278 10276 10273 10270 10266 10265 10263 10262 10259 10257 10255 10254 10252 10250 10248 10246 10244 10241 10238 10235 10233 10231 10228 10225 10223 10221 10219 10217 10216 10215 10213 10211 10208 10206 10203 10201 10198 10195 10193 10190 10188 10185 10183 10181 10179 10177 10176 10175 10173 10171 10170
10340 10338 10335 10333 10332 10330 10328 10326 10324 10321 10320 10318 10316 10314 10313 10311 10309 10306 10305 10303 10301 10300 10298 10296 10294 10292 10290 10288 10286 10283 10281 10279 10277 10275 10274 10272 10270 10267 10264 10261 10258 10257 10256 10254 10252 10250 10248 10246 10245 10242 10240 10238 10236 10233 10231 10228 10226 10223 10220 10218 10216 10213 10211 10211 10209 10208 10205 10203 10201 10198 10195 10193 10190 10186 10183 10181 10178 10176 10173 10171 10170 10169 10167 10165 10164 10162
10331 10329 10327 10325 10324 10322 10320 10318 10316 10314 10313 10311 10309 10307 10305 10303 10301 10300 10298 10296 10294 10292 10290 10288 10287 10285 10283 10281 10280 10278 10276 10273 10271 10270 10268 10266 10264 10261 10259 10256 10253 10251 10250 10248 10246 10245 10243 10241 10240 10238 10235 10233 10230 10228 10225 10223 10221 10218 10215 10212 10210 10208 10206 10205 10203 10201 10200 10198 10195 10192 10190 10186 10183 10180 10177 10175 10172 10170 10167 10165 10163 10162 10160 10158 10156 10154
10323 10321 10320 10318 10316 10315 10313 10311 10309 10307 10305 10304 10302 10300 10298 10296 10295 10293 10291 10289 10287 10286 10284 10282 10281 10279 10278 10276 10274 10272 10270 10268 10266 10264 10262 10260 10258 10256 10253 10251 10248 10245 10243 10242 10241 10240 10238 10236 10235 10233 10231 10228 10225 10222 10220 10218 10216 10213 10211 10208 10204 10201 10200 10199 10198 10195 10193 10191 10189 10186 10183 10180 10177 10174 10171 10168 10166 10163 10161 10159 10157 10155 10154 10152 10150 10147
10315 10314 10312 10311 10309 10307 10306 10304 10302 10300 10299 10297 10295 10294 10292 10290 10289 10286 10285 10283 10281 10280 10278 10276 10275 10273 10272 10270 10269 10267 10265 10263 10261 10259 10257 10255 10253 10250 10248 10245 10243 10240 10238 10236 10235 10233 10233 10231 10229 10228 10226 10223 10221 10218 10215 10212 10210 10208 10206 10203 10200 10196 10195 10193 10191 10189 10187 10185 10182 10180 10177 10174 10171 10168 10165 10162 10159 10157 10155 10153 10151 10150 10148 10146 10144 10141
10308 10307 10305 10304 10302 10301 10299 10298 10296 10295 10293 10291 10290 10288 10286 10285 10283 10281 10280 10278 10276 10274 10273 10271 10270 10268 10266 10265 10264 10263 10261 10258 10256 10255 10252 10250 10248 10245 10243 10240 10238 10236 10233 10231 10229 10228 10226 10225 10224 10222 10220 10218 10216 10213 10210 10207 10205 10203 10201 10198 10195 10192 10190 10187 10185 10183 10181 10178 10176 10174 10171 10168 10165 10162 10159 10156 10153 10151 10149 10147 10145 10144 10142 10140 10138 10136
10302 10300 10299 10298 10296 10295 10293 10291 10290 10289 10287 10286 10284 10283 10281 10280 10278 10276 10275 10273 10271 10269 10268 10266 10265 10263 10261 10260 10258 10258 10256 10255 10253 10250 10248 10245 10243 10240 10238 10235 10233 10231 10228 10226 10224 10222 10221 10220 10218 10216 10215 10213 10210 10208 10205 10202 10200 10198 10195 10193 10191 10188 10185 10181 10180 10178 10175 10173 10170 10168 10166 10163 10160 10157 10154 10151 10148 10145 10143 10141 10139 10138 10136 10134 10132 10130
10296 10295 10293 10292 10291 10290 10288 10286 10285 10284 10283 10281 10280 10278 10276 10275 10273 10272 10270 10268 10266 10265 10263 10261 10260 10258 10256 10255 10253 10253 10251 10250 10248 10246 10243 10241 10238 10236 10233 10230 10228 10226 10223 10221 10219 10217 10215 10214 10213 10211 10210 10208 10205 10203 10200 10197 10195 10192 10190 10188 10186 10183 10180 10177 10175 10172 10170 10167 10165 10163 10160 10158 10155 10152 10149 10145 10142 10140 10137 10135 10133 10131 10130 10128 10126 10123
10291 10290 10289 10288 10286 10285 10283 10282 10281 10280 10278 10276 10275 10273 10272 10271 10269 10268 10266 10264 10262 10260 10259 10257 10255 10253 10251 10250 10249 10248 10246 10245 10244 10242 10240 10237 10235 10231 10228 10225 10223 10221 10218 10216 10215 10213 10211 10209 10207 10206 10204 10202 10200 10197 10195 10193 10190 10187 10185 10182 10180 10178 10175 10173 10170 10168 10165 10162 10160 10158 10156 10153 10151 10148 10144 10141 10138 10135 10132 10130 10128 10126 10123 10121 10119 10116
10287 10286 10285 10283 10282 10281 10280 10278 10276 10275 10274 10272 10271 10270 10268 10266 10265 10263 10261 10260 10258 10256 10254 10253 10251 10249 10247 10245 10244 10243 10241 10240 10239 10238 10235 10233 10230 10228 10225 10221 10219 10216 10214 10211 10210 10208 10207 10205 10203 10201 10199 10196 10194 10192 10190 10188 10185 10182 10180 10177 10175 10173 10170 10168 10166 10163 10161 10158 10155 10153 10151 10149 10146 10143 10140 10136 10133 10130 10126 10125 10122 10120 10118 10115 10113 10110
10283 10282 10281 10280 10278 10277 10276 10274 10273 10271 10270 10268 10267 10265 10264 10262 10260 10258 10257 10255 10253 10251 10250 10248 10246 10245 10243 10241 10240 10238 10236 10235 10234 10232 10230 10228 10226 10223 10221 10218 10215 10212 10210 10208 10205 10204 10202 10201 10200 10197 10195 10192 10189 10187 10185 10183 10181 10178 10175 10173 10170 10168 10165 10163 10161 10158 10156 10154 10151 10149 10146 10145 10142 10139 10136 10133 10129 10125 10121 10119 10116 10115 10112 10110 10106 10104
10279 10278 10277 10276 10275 10273 10272 10270 10269 10268 10266 10264 10263 10261 10260 10258 10256 10254 10252 10251 10249 10247 10245 10243 10242 10240 10238 10237 10235 10234 10232 10230 10228 10227 10225 10223 10221 10218 10216 10213 10210 10208 10205 10203 10201 10200 10198 10196 10195 10194 10191 10188 10185 10183 10180 10178 10176 10174 10171 10168 10166 10163 10161 10158 10156 10153 10151 10149 10146 10145 10142 10140 10138 10135 10131 10128 10125 10121 10117 10114 10111 10108 10106 10104 10101 10098
10276 10275 10273 10272 10271 10270 10268 10266 10265 10263 10262 10260 10258 10257 10255 10253 10252 10250 10248 10246 10245 10243 10241 10239 10237 10236 10234 10233 10231 10230 10228 10226 10224 10222 10220 10218 10215 10213 10210 10208 10205 10203 10200 10198 10196 10195 10193 10192 10191 10190 10188 10185 10182 10179 10176 10174 10171 10169 10166 10164 10162 10160 10156 10154 10151 10148 10146 10144 10141 10140 10137 10135 10133 10130 10127 10124 10120 10116 10113 10109 10106 10103 10101 10098 10095 10092
10272 10271 10270 10268 10267 10266 10264 10263 10261 10260 10258 10256 10255 10253 10251 10249 10247 10246 10244 10241 10240 10238 10236 10235 10233 10231 10230 10228 10226 10225 10223 10221 10219 10217 10215 10213 10210 10207 10205 10202 10200 10197 10195 10192 10191 10189 10188 10186 10186 10186 10186 10183 10180 10176 10172 10169 10166 10164 10161 10159 10157 10155 10152 10150 10146 10144 10141 10139 10136 10134 10132 10130 10127 10125 10122 10119 10115 10111 10108 10104 10101 10098 10095 10093 10090 10086
10269 10268 10266 10265 10263 10261 10260 10258 10257 10255 10254 10252 10250 10248 10246 10245 10243 10241 10240 10238 10235 10233 10232 10230 10228 10226 10225 10223 10221 10220 10218 10216 10214 10212 10210 10208 10205 10202 10200 10196 10194 10191 10189 10186 10184 10183 10181 10180 10179 10180 10180 10180 10177 10173 10169 10165 10162 10159 10156 10154 10152 10150 10148 10145 10142 10139 10136 10134 10131 10129 10126 10124 10121 10119 10116 10114 10110 10107 10103 10100 10096 10093 10090 10087 10085 10081